[[{"header":{"parameterUnit":"m.s-1","parameterCategory":1,"la1":30.2991,"la2":30.254,"lo1":-89.0895,"lo2":-89.0444,"dy":0.0017,"dx":0.0017,"nx":28,"ny":28,"refTime":"2024-04-17T03:00:00:Z","depth":0,"parameterNumber":2,"parameterNumberName":"U-component_of_WINDS"},"data":[0,0,0,0,0,0,0,0,0,0,0,0,0,0,0,0,0,0,0,0,0,0,0,0,0,0,0,0,0,0,0,0,0,0,0,0,0,0,0,0,0,0,0,0,0,0,0,0,0,0,0,0,0,0,0,0,0,0,-2.9183,-2.9182,0,-2.9159,-2.9159,-2.9159,-2.9101,-2.91,-2.9099,-2.9097,-2.9075,-2.9075,-2.9076,0,0,0,0,0,0,0,0,0,0,0,0,0,-2.918,-2.918,-2.9183,-2.9182,-2.9182,-2.9159,-2.9159,-2.9159,-2.9101,-2.91,-2.9098,-2.9097,-2.9075,-2.9075,-2.9076,0,0,0,0,0,0,0,0,0,0,0,0,0,-2.9171,-2.918,-2.9183,-2.9151,-2.9148,-2.9159,-2.9159,-2.9158,-2.9101,-2.91,-2.9098,-2.9096,-2.9074,-2.9075,-2.9076,-2.9117,0,0,-2.9078,-2.9079,0,0,0,0,0,0,0,0,-2.9172,-2.9171,-2.9156,-2.9153,-2.9149,-2.9131,-2.9149,-2.9145,-2.9102,-2.9119,-2.9097,-2.9095,-2.9095,-2.9094,-2.9094,-2.9116,-2.9115,-2.9078,-2.9079,-2.9079,-2.9079,0,0,0,0,0,0,0,-2.9172,-2.9172,-2.9173,-2.9156,-2.9152,-2.9138,-2.9135,-2.9148,-2.9118,-2.9117,-2.9113,-2.9111,-2.9093,-2.9093,-2.9093,-2.9115,-2.9078,-2.9079,-2.908,-2.908,-2.917,-2.9171,0,0,0,0,0,0,-2.9177,-2.9173,-2.9174,-2.9173,-2.9156,-2.914,-2.9136,-2.9139,-2.9117,-2.9112,-2.9113,-2.9108,-2.9093,-2.9092,-2.9092,-2.9138,-2.9079,-2.908,-2.908,-2.9168,-2.917,-2.9172,0,0,0,0,0,0,-2.9177,-2.9178,-2.9175,-2.9172,-2.917,-2.9142,-2.9145,-2.9139,-2.9139,-2.9114,-2.9108,-2.9118,-2.9091,-2.9091,-2.9111,-2.9136,-2.908,-2.9081,-2.9165,-2.9168,-2.9171,-2.9231,0,0,0,0,0,0,-2.9178,-2.9178,-2.9193,-2.9172,-2.9171,-2.9195,-2.9147,-2.914,-2.9141,-2.9135,-2.9117,-2.9113,-2.909,-2.911,-2.9112,-2.9136,-2.9082,-2.9163,-2.9167,-2.917,-2.9226,-2.9235,-2.9243,0,0,0,0,0,-2.9178,-2.9212,-2.9194,-2.9195,-2.9189,-2.9196,-2.9195,-2.9167,-2.9143,-2.9158,-2.9141,-2.9113,-2.9134,-2.9113,-2.9114,-2.9139,-2.9161,-2.9166,-2.917,-2.9223,-2.9234,-2.9243,0,0,0,0,0,0,-2.9237,-2.9208,-2.9189,-2.9217,-2.9209,-2.9186,-2.9204,-2.918,-2.918,-2.9174,-2.9141,-2.9137,-2.9162,-2.9153,-2.913,-2.9178,-2.9143,-2.9148,-2.9182,-2.9193,-2.9201,-2.9202,-2.9082,0,0,0,0,0,-2.9253,-2.9261,-2.9236,-2.9263,-2.926,-2.9233,-2.9235,-2.9215,-2.9206,-2.9202,-2.9187,-2.918,-2.9185,-2.9188,-2.9191,-2.9225,-2.922,-2.9243,-2.9252,-2.9259,-2.9263,-2.9279,-2.9289,-2.9186,-2.9186,-2.9186,0,0,-2.9286,-2.9272,-2.9279,-2.9274,-2.9266,-2.9275,-2.9231,-2.9243,-2.9249,-2.9204,-2.9222,-2.9211,-2.9201,-2.9228,-2.924,-2.9221,-2.929,-2.9264,-2.927,-2.927,-2.9285,-2.9294,-2.9303,-2.9189,-2.9189,-2.9188,0,0,-2.9352,-2.9342,-2.9363,-2.9356,-2.9344,-2.9325,-2.9331,-2.9312,-2.9302,-2.932,-2.9286,-2.9294,-2.9303,-2.9297,-2.9295,-2.9359,-2.9333,-2.9361,-2.9404,-2.942,-2.9428,-2.9435,-2.9457,-2.9465,-2.9366,-2.9366,-2.9366,0,-2.9395,-2.9407,-2.9377,-2.9391,-2.939,-2.935,-2.9371,-2.9365,-2.9355,-2.9355,-2.9335,-2.9345,-2.9336,-2.936,-2.9376,-2.9376,-2.9381,-2.9362,-2.9429,-2.9436,-2.9442,-2.9462,-2.9471,-2.9369,-2.9369,-2.9368,-2.9368,0,-2.946,-2.9469,-2.9488,-2.9478,-2.9479,-2.9497,-2.947,-2.9475,-2.9455,-2.9439,-2.9457,-2.9445,-2.9444,-2.9449,-2.9429,-2.9471,-2.946,-2.9435,-2.9399,-2.9456,-2.9474,-2.9482,-2.9374,-2.9373,-2.9372,-2.9371,0,0,-2.956,-2.9535,-2.9542,-2.9537,-2.9521,-2.9527,-2.9543,-2.9542,-2.9547,-2.9542,-2.9554,-2.9563,-2.954,-2.9538,-2.9517,-2.9532,-2.9582,-2.9505,-2.9505,-2.9519,-2.9626,-2.9643,-2.9653,-2.9566,-2.9567,-2.9568,-2.9627,0,-2.9621,-2.9645,-2.9619,-2.965,-2.9657,-2.962,-2.9634,-2.9626,-2.9612,-2.9617,-2.9602,-2.9608,-2.9578,-2.9576,-2.9589,-2.9573,-2.9603,-2.9569,-2.9576,-2.9577,-2.9578,-2.9663,-2.9681,-2.9737,-2.9634,-2.9635,-2.9636,0,-2.9694,-2.9691,-2.9722,-2.9704,-2.9706,-2.9719,-2.9716,-2.9721,-2.9712,-2.97,-2.9699,-2.9674,-2.9689,-2.9655,-2.9674,-2.9652,-2.9654,-2.9647,-2.9648,-2.9646,-2.9608,-2.9662,-2.9754,-2.9762,-2.9647,-2.9646,-2.9645,0,-2.9762,-2.9767,-2.9785,-2.9783,-2.9762,-2.9772,-2.9764,-2.9753,-2.9754,-2.9752,-2.9752,-2.9752,-2.9751,-2.9752,-2.9728,-2.9706,-2.9751,-2.9715,-2.9741,-2.9742,-2.9751,-2.975,-2.9843,-2.9755,-2.9755,-2.9755,-2.9754,0,-2.9831,-2.9851,-2.9816,-2.9827,-2.9849,-2.9819,-2.9841,-2.983,-2.982,-2.9829,-2.9798,-2.9806,-2.9775,-2.9781,-2.9763,-2.9781,-2.9782,-2.9773,-2.9768,-2.9775,-2.9776,-2.9774,-2.9769,-2.9757,-2.9756,-2.9756,-2.9755,0,-2.991,-2.9888,-2.9905,-2.9885,-2.988,-2.9897,-2.9879,-2.9889,-2.9874,-2.9885,-2.9886,-2.9862,-2.9867,-2.9844,-2.9845,-2.9833,-2.986,-2.9849,-2.9863,-2.9859,-2.9886,-2.9883,-2.9979,-2.999,-2.9897,-2.9898,-2.9899,0,-2.9955,-2.9969,-2.995,-2.9953,-2.9947,-2.9953,-2.9954,-2.9926,-2.9928,-2.9918,-2.9929,-2.9932,-2.9932,-2.9943,-2.9925,-2.9926,-2.9914,-2.9948,-2.9914,-2.992,-2.9913,-2.9911,-2.9912,-2.9954,-2.9955,-2.9956,-2.9957,0,-3.0036,-3.0024,-3.0026,-3.0024,-3.0026,-3.0023,-3.0018,-3.0023,-2.9993,-2.9997,-3.0002,-3.0002,-3.0003,-3.0006,-3.0003,-2.9996,-2.9971,-2.9968,-2.9974,-2.998,-2.9987,-2.9982,-2.988,-2.9965,-2.9965,-2.9964,-2.9964,-2.9963,-3.0098,-3.0109,-3.0097,-3.01,-3.0094,-3.009,-3.0098,-3.0083,-3.0087,-3.0085,-3.0069,-3.0076,-3.0067,-3.0061,-3.0055,-3.0061,-3.0045,-3.0054,-3.0056,-3.0058,-3.0062,-2.9988,-3.0061,-3.0061,-3.006,-3.006,-3.006,0,-3.0176,-3.0167,-3.017,-3.0164,-3.0167,-3.0144,-3.0138,-3.0141,-3.0148,-3.0141,-3.0142,-3.0148,-3.015,-3.0133,-3.0134,-3.0142,-3.013,-3.0143,-3.0141,-3.0139,-3.0077,-3.0071,-3.0152,-3.0151,-3.0151,-3.0151,-3.0151,-3.0151,-3.0217,-3.0234,-3.0221,-3.0234,-3.0225,-3.0231,-3.023,-3.0226,-3.022,-3.0227,-3.0229,-3.0218,-3.0207,-3.0206,-3.0208,-3.0203,-3.0204,-3.022,-3.0211,-3.0153,-3.0144,-3.0135,-3.0129,-3.0221,-3.0221,-3.0272,-3.0273,-3.0273]},{"header":{"parameterUnit":"m.s-1","parameterCategory":1,"la1":30.2991,"la2":30.254,"lo1":-89.0895,"lo2":-89.0444,"dy":0.0017,"dx":0.0017,"nx":28,"ny":28,"refTime":"2024-04-17T03:00:00:Z","depth":0,"parameterNumber":3,"parameterNumberName":"V-component_of_WINDS"},"data":[0,0,0,0,0,0,0,0,0,0,0,0,0,0,0,0,0,0,0,0,0,0,0,0,0,0,0,0,0,0,0,0,0,0,0,0,0,0,0,0,0,0,0,0,0,0,0,0,0,0,0,0,0,0,0,0,0,0,2.4465,2.4466,0,2.4503,2.4503,2.4503,2.4519,2.4519,2.4519,2.4519,2.4554,2.4555,2.4556,0,0,0,0,0,0,0,0,0,0,0,0,0,2.4407,2.4408,2.4465,2.4466,2.4466,2.4503,2.4503,2.4504,2.4519,2.4519,2.4519,2.4519,2.4554,2.4555,2.4557,0,0,0,0,0,0,0,0,0,0,0,0,0,2.4437,2.4408,2.4465,2.4478,2.448,2.4502,2.4503,2.4504,2.4519,2.4519,2.4519,2.4519,2.4554,2.4555,2.4557,2.4568,0,0,2.4561,2.4562,0,0,0,0,0,0,0,0,2.4435,2.4439,2.4476,2.4478,2.4479,2.4506,2.4496,2.4525,2.4519,2.4504,2.4519,2.4519,2.4538,2.4541,2.4548,2.457,2.4571,2.4561,2.4562,2.4563,2.4563,0,0,0,0,0,0,0,2.4433,2.4438,2.448,2.4476,2.4479,2.4482,2.4486,2.4501,2.4521,2.4505,2.4507,2.4511,2.4539,2.4547,2.4549,2.4572,2.4561,2.4563,2.4564,2.4564,2.4607,2.4608,0,0,0,0,0,0,2.4429,2.4436,2.4479,2.4481,2.4457,2.4483,2.4488,2.4498,2.4521,2.4525,2.4511,2.4512,2.4544,2.4547,2.455,2.4567,2.4563,2.4564,2.4565,2.4607,2.4607,2.4608,0,0,0,0,0,0,2.4428,2.4433,2.4477,2.4459,2.4465,2.4485,2.4495,2.4498,2.4506,2.4525,2.4529,2.4515,2.4544,2.4548,2.4564,2.4568,2.4565,2.4567,2.4607,2.4607,2.4607,2.4599,0,0,0,0,0,0,2.4426,2.4432,2.4437,2.4459,2.4466,2.4491,2.4495,2.4499,2.4509,2.451,2.453,2.4533,2.4544,2.4562,2.4566,2.457,2.4568,2.4607,2.4607,2.4607,2.4599,2.4599,2.4599,0,0,0,0,0,2.4424,2.4432,2.4437,2.4442,2.4472,2.4491,2.4495,2.4508,2.4509,2.4514,2.4527,2.4533,2.4567,2.4564,2.4568,2.4573,2.4606,2.4607,2.4607,2.4599,2.4599,2.4599,0,0,0,0,0,0,2.4408,2.4435,2.4441,2.4456,2.4471,2.4493,2.45,2.4507,2.4522,2.4522,2.4537,2.4542,2.4557,2.4566,2.4562,2.4587,2.4587,2.4589,2.458,2.458,2.458,2.4577,2.4569,0,0,0,0,0,2.4407,2.442,2.4443,2.4454,2.4462,2.4479,2.4488,2.4497,2.4513,2.452,2.4533,2.4548,2.4563,2.4572,2.4586,2.4601,2.4606,2.4607,2.4607,2.4607,2.4608,2.4618,2.4619,2.4609,2.4609,2.4609,0,0,2.4403,2.4419,2.4427,2.4451,2.4464,2.4478,2.4485,2.4498,2.4509,2.4521,2.4538,2.4549,2.4567,2.4583,2.459,2.4591,2.4612,2.4607,2.4607,2.4608,2.4619,2.462,2.4621,2.461,2.461,2.461,0,0,2.4404,2.4417,2.4429,2.4443,2.4463,2.4475,2.4478,2.45,2.4508,2.4526,2.4536,2.4549,2.4573,2.4586,2.4595,2.4604,2.4611,2.4608,2.4608,2.4619,2.4619,2.462,2.4625,2.4626,2.4609,2.4609,2.4609,0,2.4397,2.4419,2.4434,2.4449,2.446,2.4473,2.4486,2.4498,2.4521,2.4529,2.453,2.4562,2.4575,2.4595,2.4598,2.4604,2.4609,2.4606,2.4618,2.4619,2.462,2.4625,2.4626,2.4609,2.4609,2.4609,2.4609,0,2.441,2.4425,2.4432,2.4456,2.4468,2.4481,2.4499,2.451,2.4518,2.4531,2.4549,2.4565,2.4584,2.459,2.4597,2.4612,2.4612,2.4615,2.4616,2.462,2.4625,2.4627,2.4609,2.4609,2.4609,2.4609,0,0,2.4399,2.4435,2.4437,2.4449,2.4474,2.4486,2.45,2.452,2.4529,2.4545,2.4558,2.458,2.4584,2.4595,2.4605,2.4614,2.4622,2.4617,2.4617,2.4618,2.4641,2.4638,2.464,2.4627,2.4627,2.4627,2.4639,0,2.4404,2.4432,2.4448,2.4469,2.4484,2.4499,2.4512,2.4528,2.4541,2.4555,2.4569,2.4585,2.4588,2.4595,2.4605,2.4619,2.4627,2.4618,2.4639,2.464,2.4635,2.4642,2.4639,2.465,2.4641,2.4641,2.4642,0,2.4413,2.4431,2.4454,2.448,2.4487,2.4498,2.4519,2.4533,2.4552,2.4561,2.4575,2.4585,2.4602,2.4602,2.4626,2.462,2.4629,2.4638,2.4639,2.4641,2.4641,2.4646,2.4653,2.4655,2.4644,2.4644,2.4644,0,2.4405,2.4435,2.4454,2.4463,2.4493,2.4501,2.4514,2.4533,2.4545,2.4563,2.4571,2.459,2.4601,2.4616,2.4631,2.463,2.4654,2.4655,2.4662,2.4662,2.4666,2.4666,2.4676,2.4671,2.4671,2.4671,2.4671,0,2.4409,2.4423,2.4451,2.4462,2.4478,2.4497,2.4513,2.4526,2.4544,2.4559,2.4572,2.4585,2.4605,2.4621,2.4633,2.4652,2.4656,2.4664,2.4667,2.4663,2.4662,2.4669,2.4669,2.4672,2.4672,2.4672,2.4672,0,2.4402,2.4421,2.4443,2.447,2.4478,2.4489,2.4512,2.4524,2.4538,2.4556,2.4562,2.4584,2.4603,2.4621,2.4646,2.4654,2.4674,2.4677,2.4667,2.4669,2.4676,2.4675,2.4692,2.4695,2.4687,2.4687,2.4688,0,2.4404,2.4415,2.4445,2.4456,2.4469,2.4487,2.45,2.4519,2.4532,2.4557,2.4566,2.4587,2.4605,2.4635,2.4653,2.4673,2.4678,2.4682,2.4681,2.4677,2.4679,2.4679,2.4681,2.4682,2.4682,2.4682,2.4682,0,2.4404,2.4414,2.4433,2.4455,2.4471,2.4489,2.4508,2.4516,2.4539,2.4553,2.4574,2.4588,2.4616,2.4637,2.4659,2.4672,2.4681,2.4683,2.4686,2.4682,2.4676,2.4681,2.4668,2.4682,2.4682,2.4682,2.4682,2.4682,2.4402,2.4414,2.4438,2.4459,2.4475,2.4493,2.4507,2.4524,2.4542,2.4567,2.4577,2.4599,2.462,2.4652,2.4665,2.4683,2.4684,2.4688,2.4689,2.469,2.469,2.4673,2.4687,2.4687,2.4687,2.4687,2.4687,0,2.4405,2.4422,2.4441,2.4468,2.4485,2.4494,2.4515,2.4529,2.4548,2.4568,2.4586,2.4612,2.4633,2.4654,2.4676,2.4686,2.4691,2.4692,2.4691,2.4695,2.4687,2.4682,2.4688,2.4688,2.4688,2.4688,2.4688,2.4688,2.4408,2.4429,2.4442,2.4472,2.4489,2.4511,2.4523,2.454,2.4557,2.4585,2.4604,2.4618,2.4638,2.4663,2.4683,2.4689,2.4697,2.4696,2.4703,2.4695,2.4695,2.4694,2.4691,2.4697,2.4697,2.471,2.471,2.471]}]]